Time,TemperatureF,DewpointF,PressureIn,WindDirection,WindDirectionDegrees,WindSpeedMPH,WindSpeedGustMPH,Humidity,HourlyPrecipIn,Conditions,Clouds,dailyrainin,SoftwareType,DateUTC
2013-03-27 00:00:00,37.0,-10.8,29.82,SSW,202,9.0,11.0,12,0.00,,,0.00,meteohub,2013-03-27 04:00:00,
2013-03-27 00:01:00,37.0,-10.8,29.82,SSW,197,8.0,11.0,12,0.00,,,0.00,meteohub,2013-03-27 04:01:00,
2013-03-27 00:02:00,37.0,-10.8,29.82,SSW,213,8.0,11.0,12,0.00,,,0.00,meteohub,2013-03-27 04:02:00,
2013-03-27 00:06:00,37.0,-10.8,29.82,SSW,197,9.0,11.0,12,0.00,,,0.00,meteohub,2013-03-27 04:06:00,
2013-03-27 00:11:00,37.0,-10.8,29.82,South,190,8.0,13.0,12,0.00,,,0.00,meteohub,2013-03-27 04:11:00,
2013-03-27 00:17:00,37.0,-10.8,29.82,SSW,200,8.0,13.0,12,0.00,,,0.00,meteohub,2013-03-27 04:17:00,
2013-03-27 00:22:00,37.0,-10.8,29.82,SSW,206,8.0,13.0,12,0.00,,,0.00,meteohub,2013-03-27 04:22:00,
2013-03-27 00:27:00,37.0,-10.8,29.82,SSW,210,8.0,13.0,12,0.00,,,0.00,meteohub,2013-03-27 04:27:00,
2013-03-27 00:32:00,36.9,-11.0,29.82,SSW,194,9.0,13.0,12,0.00,,,0.00,meteohub,2013-03-27 04:32:00,
2013-03-27 00:37:00,36.9,-11.0,29.82,SW,230,8.0,10.0,12,0.00,,,0.00,meteohub,2013-03-27 04:37:00,
2013-03-27 00:42:00,36.9,-11.0,29.82,SSW,205,6.0,10.0,12,0.00,,,0.00,meteohub,2013-03-27 04:42:00,
2013-03-27 00:47:00,37.0,-10.8,29.79,SSW,199,7.0,11.0,12,0.00,,,0.00,meteohub,2013-03-27 04:47:00,
2013-03-27 00:52:00,37.0,-10.8,29.79,SSW,204,8.0,11.0,12,0.00,,,0.00,meteohub,2013-03-27 04:52:00,
2013-03-27 00:58:00,37.0,-10.8,29.79,SSW,203,9.0,11.0,12,0.00,,,0.00,meteohub,2013-03-27 04:58:00,
2013-03-27 01:03:00,37.0,-10.8,29.82,SSW,200,8.0,11.0,12,0.00,,,0.00,meteohub,2013-03-27 05:03:00,
2013-03-27 01:09:00,37.0,-10.8,29.82,SW,235,8.0,12.0,12,0.00,,,0.00,meteohub,2013-03-27 05:09:00,
2013-03-27 01:14:00,37.0,-10.8,29.82,SW,233,6.0,12.0,12,0.00,,,0.00,meteohub,2013-03-27 05:14:00,
2013-03-27 01:19:00,37.0,-10.8,29.82,SW,216,9.0,13.0,12,0.00,,,0.00,meteohub,2013-03-27 05:19:00,
2013-03-27 01:24:00,37.0,-10.8,29.82,SSW,199,8.0,13.0,12,0.00,,,0.00,meteohub,2013-03-27 05:24:00,
2013-03-27 01:30:00,37.0,-10.8,29.82,WSW,237,9.0,13.0,12,0.00,,,0.00,meteohub,2013-03-27 05:30:00,
2013-03-27 01:35:00,37.0,-10.8,29.82,SW,227,8.0,13.0,12,0.00,,,0.00,meteohub,2013-03-27 05:35:00,
2013-03-27 01:40:00,37.0,-10.8,29.82,SW,234,8.0,13.0,12,0.00,,,0.00,meteohub,2013-03-27 05:40:00,
2013-03-27 01:46:00,37.0,-10.8,29.82,South,188,9.0,13.0,12,0.00,,,0.00,meteohub,2013-03-27 05:46:00,
2013-03-27 01:51:00,36.9,-11.0,29.82,SW,223,9.0,13.0,12,0.00,,,0.00,meteohub,2013-03-27 05:51:00,
2013-03-27 01:56:00,36.7,-11.2,29.82,SW,215,10.0,13.0,12,0.00,,,0.00,meteohub,2013-03-27 05:56:00,
2013-03-27 02:02:00,36.7,-11.2,29.82,WSW,237,7.0,14.0,12,0.00,,,0.00,meteohub,2013-03-27 06:02:00,
2013-03-27 02:07:00,36.7,-11.2,29.82,SW,224,4.0,14.0,12,0.00,,,0.00,meteohub,2013-03-27 06:07:00,
2013-03-27 02:12:00,36.5,-11.4,29.82,SW,223,8.0,12.0,12,0.00,,,0.00,meteohub,2013-03-27 06:12:00,
2013-03-27 02:18:00,36.3,-11.6,29.82,WSW,243,8.0,12.0,12,0.00,,,0.00,meteohub,2013-03-27 06:18:00,
2013-03-27 02:23:00,36.3,-11.6,29.82,WSW,238,8.0,12.0,12,0.00,,,0.00,meteohub,2013-03-27 06:23:00,
2013-03-27 02:28:00,36.1,-11.6,29.82,SSW,211,8.0,13.0,12,0.00,,,0.00,meteohub,2013-03-27 06:28:00,
2013-03-27 02:33:00,36.1,-11.6,29.82,SSW,209,8.0,13.0,12,0.00,,,0.00,meteohub,2013-03-27 06:33:00,
2013-03-27 02:38:00,36.1,-11.6,29.82,SW,218,8.0,11.0,12,0.00,,,0.00,meteohub,2013-03-27 06:38:00,
2013-03-27 02:44:00,36.1,-11.6,29.82,West,261,6.0,11.0,12,0.00,,,0.00,meteohub,2013-03-27 06:44:00,
2013-03-27 02:49:00,36.0,-11.7,29.82,SW,235,8.0,11.0,12,0.00,,,0.00,meteohub,2013-03-27 06:49:00,
2013-03-27 02:55:00,35.8,-11.9,29.82,WSW,237,9.0,11.0,12,0.00,,,0.00,meteohub,2013-03-27 06:55:00,
2013-03-27 03:00:00,35.8,-11.9,29.79,WSW,250,4.0,11.0,12,0.00,,,0.00,meteohub,2013-03-27 07:00:00,
2013-03-27 03:05:00,35.6,-12.1,29.79,SW,216,8.0,11.0,12,0.00,,,0.00,meteohub,2013-03-27 07:05:00,
2013-03-27 03:12:00,35.6,-12.1,29.79,SW,214,8.0,10.0,12,0.00,,,0.00,meteohub,2013-03-27 07:12:00,
2013-03-27 03:17:00,35.6,-8.9,29.79,SSW,208,4.0,10.0,14,0.00,,,0.00,meteohub,2013-03-27 07:17:00,
2013-03-27 03:22:00,35.6,-8.9,29.79,WSW,239,8.0,10.0,14,0.00,,,0.00,meteohub,2013-03-27 07:22:00,
2013-03-27 03:28:00,35.6,-8.9,29.79,WSW,249,5.0,10.0,14,0.00,,,0.00,meteohub,2013-03-27 07:28:00,
2013-03-27 03:33:00,35.4,-7.6,29.79,WSW,243,6.0,9.0,15,0.00,,,0.00,meteohub,2013-03-27 07:33:00,
2013-03-27 03:38:00,35.4,-7.6,29.79,WSW,238,4.0,11.0,15,0.00,,,0.00,meteohub,2013-03-27 07:38:00,
2013-03-27 03:43:00,35.4,-7.6,29.79,SW,229,6.0,11.0,15,0.00,,,0.00,meteohub,2013-03-27 07:43:00,
2013-03-27 03:48:00,35.4,-7.6,29.79,WSW,248,8.0,11.0,15,0.00,,,0.00,meteohub,2013-03-27 07:48:00,
2013-03-27 03:54:00,35.4,-7.6,29.79,SW,220,6.0,11.0,15,0.00,,,0.00,meteohub,2013-03-27 07:54:00,
2013-03-27 03:59:00,35.4,-7.6,29.79,SSW,210,8.0,8.0,15,0.00,,,0.00,meteohub,2013-03-27 07:59:00,
2013-03-27 04:04:00,35.4,-5.1,29.79,SW,225,5.0,8.0,17,0.00,,,0.00,meteohub,2013-03-27 08:04:00,
2013-03-27 04:10:00,35.4,-5.1,29.79,WSW,237,7.0,8.0,17,0.00,,,0.00,meteohub,2013-03-27 08:10:00,
2013-03-27 04:15:00,35.4,-5.1,29.79,SW,235,8.0,8.0,17,0.00,,,0.00,meteohub,2013-03-27 08:15:00,
2013-03-27 04:20:00,35.4,-5.1,29.79,SW,215,6.0,8.0,17,0.00,,,0.00,meteohub,2013-03-27 08:20:00,
2013-03-27 04:25:00,35.2,-1.8,29.79,WSW,253,8.0,8.0,20,0.00,,,0.00,meteohub,2013-03-27 08:25:00,
2013-03-27 04:30:00,35.2,-1.8,29.79,WSW,251,4.0,9.0,20,0.00,,,0.00,meteohub,2013-03-27 08:30:00,
2013-03-27 04:35:00,35.1,-2.0,29.79,SW,221,5.0,9.0,20,0.00,,,0.00,meteohub,2013-03-27 08:35:00,
2013-03-27 04:41:00,34.9,-2.2,29.79,SW,227,6.0,8.0,20,0.00,,,0.00,meteohub,2013-03-27 08:41:00,
2013-03-27 04:47:00,34.7,-2.4,29.82,SW,230,5.0,8.0,20,0.00,,,0.00,meteohub,2013-03-27 08:47:00,
2013-03-27 04:52:00,34.5,-2.4,29.82,SW,234,5.0,8.0,20,0.00,,,0.00,meteohub,2013-03-27 08:52:00,
2013-03-27 04:57:00,34.5,-2.4,29.82,WSW,241,5.0,8.0,20,0.00,,,0.00,meteohub,2013-03-27 08:57:00,
2013-03-27 05:02:00,34.3,-2.6,29.82,WSW,240,6.0,8.0,20,0.00,,,0.00,meteohub,2013-03-27 09:02:00,
2013-03-27 05:07:00,34.3,-2.6,29.82,WSW,238,4.0,8.0,20,0.00,,,0.00,meteohub,2013-03-27 09:07:00,
2013-03-27 05:12:00,34.0,-2.9,29.82,SW,218,4.0,6.0,20,0.00,,,0.00,meteohub,2013-03-27 09:12:00,
2013-03-27 05:17:00,34.0,-2.9,29.82,SW,224,6.0,6.0,20,0.00,,,0.00,meteohub,2013-03-27 09:17:00,
2013-03-27 05:22:00,33.8,-3.1,29.82,SW,232,4.0,6.0,20,0.00,,,0.00,meteohub,2013-03-27 09:22:00,
2013-03-27 05:27:00,33.8,-3.1,29.82,SW,231,6.0,6.0,20,0.00,,,0.00,meteohub,2013-03-27 09:27:00,
2013-03-27 05:32:00,33.6,-3.3,29.82,SW,217,5.0,6.0,20,0.00,,,0.00,meteohub,2013-03-27 09:32:00,
2013-03-27 05:37:00,33.6,-3.3,29.82,SW,227,4.0,6.0,20,0.00,,,0.00,meteohub,2013-03-27 09:37:00,
2013-03-27 05:42:00,33.4,-3.3,29.82,SW,220,6.0,6.0,20,0.00,,,0.00,meteohub,2013-03-27 09:42:00,
2013-03-27 05:47:00,33.4,-3.3,29.82,SW,227,5.0,6.0,20,0.00,,,0.00,meteohub,2013-03-27 09:47:00,
2013-03-27 05:52:00,33.4,-3.3,29.82,SW,231,6.0,6.0,20,0.00,,,0.00,meteohub,2013-03-27 09:52:00,
2013-03-27 05:57:00,33.3,-3.5,29.82,WSW,245,5.0,6.0,20,0.00,,,0.00,meteohub,2013-03-27 09:57:00,
2013-03-27 06:03:00,33.3,-3.5,29.82,WSW,240,5.0,6.0,20,0.00,,,0.00,meteohub,2013-03-27 10:03:00,
2013-03-27 06:08:00,33.1,-3.6,29.82,WSW,239,5.0,6.0,20,0.00,,,0.00,meteohub,2013-03-27 10:08:00,
2013-03-27 06:13:00,33.1,-3.6,29.82,SW,231,3.0,6.0,20,0.00,,,0.00,meteohub,2013-03-27 10:13:00,
2013-03-27 06:18:00,33.1,-0.8,29.82,SW,228,6.0,7.0,23,0.00,,,0.00,meteohub,2013-03-27 10:18:00,
2013-03-27 06:23:00,33.1,-0.8,29.82,SW,234,5.0,7.0,23,0.00,,,0.00,meteohub,2013-03-27 10:23:00,
2013-03-27 06:28:00,33.1,-0.8,29.82,WSW,247,5.0,7.0,23,0.00,,,0.00,meteohub,2013-03-27 10:28:00,
2013-03-27 06:33:00,33.1,-0.8,29.82,SW,229,6.0,7.0,23,0.00,,,0.00,meteohub,2013-03-27 10:33:00,
2013-03-27 06:39:00,33.1,-0.8,29.82,SW,226,6.0,7.0,23,0.00,,,0.00,meteohub,2013-03-27 10:39:00,
2013-03-27 06:44:00,33.3,1.2,29.82,SW,215,5.0,6.0,25,0.00,,,0.00,meteohub,2013-03-27 10:44:00,
2013-03-27 06:49:00,33.3,1.2,29.82,SW,229,5.0,6.0,25,0.00,,,0.00,meteohub,2013-03-27 10:49:00,
2013-03-27 06:54:00,33.3,1.2,29.82,WSW,244,6.0,6.0,25,0.00,,,0.00,meteohub,2013-03-27 10:54:00,
2013-03-27 07:00:00,33.4,1.4,29.82,SW,222,5.0,8.0,25,0.00,,,0.00,meteohub,2013-03-27 11:00:00,
2013-03-27 07:05:00,33.4,1.4,29.82,SW,215,5.0,8.0,25,0.00,,,0.00,meteohub,2013-03-27 11:05:00,
2013-03-27 07:11:00,33.6,1.6,29.82,SW,222,5.0,8.0,25,0.00,,,0.00,meteohub,2013-03-27 11:11:00,
2013-03-27 07:16:00,33.8,-1.1,29.82,SW,226,6.0,8.0,22,0.00,,,0.00,meteohub,2013-03-27 11:16:00,
2013-03-27 07:22:00,33.8,-1.1,29.82,SW,223,4.0,8.0,22,0.00,,,0.00,meteohub,2013-03-27 11:22:00,
2013-03-27 07:27:00,34.0,-2.9,29.82,WSW,237,5.0,8.0,20,0.00,,,0.00,meteohub,2013-03-27 11:27:00,
2013-03-27 07:32:00,34.0,-2.9,29.82,SW,233,4.0,8.0,20,0.00,,,0.00,meteohub,2013-03-27 11:32:00,
2013-03-27 07:37:00,34.2,-2.7,29.82,WSW,240,6.0,8.0,20,0.00,,,0.00,meteohub,2013-03-27 11:37:00,
2013-03-27 07:42:00,34.3,-6.0,29.82,SW,220,6.0,8.0,17,0.00,,,0.00,meteohub,2013-03-27 11:42:00,
2013-03-27 07:47:00,34.5,-5.8,29.82,WSW,247,4.0,8.0,17,0.00,,,0.00,meteohub,2013-03-27 11:47:00,
2013-03-27 07:53:00,34.7,-8.3,29.82,SW,221,6.0,8.0,15,0.00,,,0.00,meteohub,2013-03-27 11:53:00,
2013-03-27 07:58:00,35.1,-8.0,29.82,WSW,239,5.0,8.0,15,0.00,,,0.00,meteohub,2013-03-27 11:58:00,
2013-03-27 08:04:00,35.4,-7.6,29.85,SW,233,8.0,8.0,15,0.00,,,0.00,meteohub,2013-03-27 12:04:00,
2013-03-27 08:09:00,35.8,-8.9,29.85,WSW,243,6.0,11.0,14,0.00,,,0.00,meteohub,2013-03-27 12:09:00,
2013-03-27 08:14:00,36.1,-8.5,29.85,WSW,240,4.0,11.0,14,0.00,,,0.00,meteohub,2013-03-27 12:14:00,
2013-03-27 08:19:00,36.3,-11.6,29.85,SW,227,9.0,11.0,12,0.00,,,0.00,meteohub,2013-03-27 12:19:00,
2013-03-27 08:24:00,36.9,-11.0,29.85,West,273,8.0,11.0,12,0.00,,,0.00,meteohub,2013-03-27 12:24:00,
2013-03-27 08:30:00,37.2,-10.8,29.85,SSW,203,6.0,11.0,12,0.00,,,0.00,meteohub,2013-03-27 12:30:00,
2013-03-27 08:36:00,37.6,-12.3,29.85,West,261,5.0,11.0,11,0.00,,,0.00,meteohub,2013-03-27 12:36:00,
2013-03-27 08:41:00,37.9,-11.9,29.85,SW,224,5.0,11.0,11,0.00,,,0.00,meteohub,2013-03-27 12:41:00,
2013-03-27 08:46:00,38.1,-11.7,29.85,SSW,192,4.0,11.0,11,0.00,,,0.00,meteohub,2013-03-27 12:46:00,
2013-03-27 08:52:00,38.7,-11.4,29.85,SW,217,6.0,11.0,11,0.00,,,0.00,meteohub,2013-03-27 12:52:00,
2013-03-27 08:57:00,38.8,-11.2,29.85,SW,229,8.0,12.0,11,0.00,,,0.00,meteohub,2013-03-27 12:57:00,
2013-03-27 09:02:00,39.2,-11.0,29.85,SSW,212,6.0,12.0,11,0.00,,,0.00,meteohub,2013-03-27 13:02:00,
2013-03-27 09:07:00,39.7,-10.5,29.85,SW,225,6.0,12.0,11,0.00,,,0.00,meteohub,2013-03-27 13:07:00,
2013-03-27 09:12:00,40.1,-10.3,29.85,SW,216,10.0,12.0,11,0.00,,,0.00,meteohub,2013-03-27 13:12:00,
2013-03-27 09:17:00,40.3,-12.1,29.85,SW,218,11.0,13.0,10,0.00,,,0.00,meteohub,2013-03-27 13:17:00,
2013-03-27 09:22:00,40.5,-11.9,29.85,SW,234,8.0,13.0,10,0.00,,,0.00,meteohub,2013-03-27 13:22:00,
2013-03-27 09:28:00,40.6,-11.7,29.85,SSW,210,8.0,13.0,10,0.00,,,0.00,meteohub,2013-03-27 13:28:00,
2013-03-27 09:33:00,41.4,-11.2,29.85,SW,221,8.0,15.0,10,0.00,,,0.00,meteohub,2013-03-27 13:33:00,
2013-03-27 09:39:00,41.9,-8.9,29.85,WNW,286,8.0,15.0,11,0.00,,,0.00,meteohub,2013-03-27 13:39:00,
2013-03-27 09:44:00,42.3,-10.5,29.85,SW,229,4.0,15.0,10,0.00,,,0.00,meteohub,2013-03-27 13:44:00,
2013-03-27 09:49:00,42.3,-10.5,29.85,SSW,208,9.0,13.0,10,0.00,,,0.00,meteohub,2013-03-27 13:49:00,
2013-03-27 09:55:00,42.4,-10.3,29.85,WSW,238,12.0,13.0,10,0.00,,,0.00,meteohub,2013-03-27 13:55:00,
2013-03-27 10:00:00,43.2,-11.9,29.85,SW,220,11.0,13.0,9,0.00,,,0.00,meteohub,2013-03-27 14:00:00,
2013-03-27 10:06:00,43.5,-11.6,29.85,WSW,249,13.0,13.0,9,0.00,,,0.00,meteohub,2013-03-27 14:06:00,
2013-03-27 10:11:00,43.9,-11.4,29.85,SW,232,8.0,13.0,9,0.00,,,0.00,meteohub,2013-03-27 14:11:00,
2013-03-27 10:16:00,43.3,-11.7,29.85,WSW,256,8.0,13.0,9,0.00,,,0.00,meteohub,2013-03-27 14:16:00,
2013-03-27 10:22:00,44.1,-11.2,29.85,WSW,245,5.0,15.0,9,0.00,,,0.00,meteohub,2013-03-27 14:22:00,
2013-03-27 10:27:00,44.8,-10.7,29.85,WSW,241,10.0,15.0,9,0.00,,,0.00,meteohub,2013-03-27 14:27:00,
2013-03-27 10:32:00,45.1,-10.3,29.85,SW,215,11.0,15.0,9,0.00,,,0.00,meteohub,2013-03-27 14:32:00,
2013-03-27 10:37:00,45.5,-10.1,29.85,SSE,167,6.0,15.0,9,0.00,,,0.00,meteohub,2013-03-27 14:37:00,
2013-03-27 10:42:00,45.7,-9.9,29.85,WNW,292,11.0,16.0,9,0.00,,,0.00,meteohub,2013-03-27 14:42:00,
2013-03-27 10:47:00,46.8,-11.6,29.82,West,265,8.0,16.0,8,0.00,,,0.00,meteohub,2013-03-27 14:47:00,
2013-03-27 10:53:00,46.9,-11.4,29.82,SW,216,6.0,16.0,8,0.00,,,0.00,meteohub,2013-03-27 14:53:00,
2013-03-27 10:58:00,47.7,-10.8,29.82,SSW,211,13.0,15.0,8,0.00,,,0.00,meteohub,2013-03-27 14:58:00,
2013-03-27 11:03:00,46.9,-11.4,29.82,SW,236,4.0,15.0,8,0.00,,,0.00,meteohub,2013-03-27 15:03:00,
2013-03-27 11:08:00,47.5,-11.0,29.82,West,263,11.0,15.0,8,0.00,,,0.00,meteohub,2013-03-27 15:08:00,
2013-03-27 11:14:00,47.7,-10.8,29.82,WSW,248,15.0,17.0,8,0.00,,,0.00,meteohub,2013-03-27 15:14:00,
2013-03-27 11:19:00,48.4,-10.3,29.82,WNW,285,12.0,17.0,8,0.00,,,0.00,meteohub,2013-03-27 15:19:00,
2013-03-27 11:24:00,49.5,-9.4,29.82,WSW,250,13.0,17.0,8,0.00,,,0.00,meteohub,2013-03-27 15:24:00,
2013-03-27 11:29:00,49.8,-9.2,29.82,West,260,12.0,17.0,8,0.00,,,0.00,meteohub,2013-03-27 15:29:00,
2013-03-27 11:34:00,50.7,-8.5,29.82,West,263,15.0,18.0,8,0.00,,,0.00,meteohub,2013-03-27 15:34:00,
2013-03-27 11:39:00,51.4,-8.0,29.82,West,281,13.0,18.0,8,0.00,,,0.00,meteohub,2013-03-27 15:39:00,
2013-03-27 11:44:00,52.0,-10.3,29.82,WNW,288,6.0,18.0,7,0.00,,,0.00,meteohub,2013-03-27 15:44:00,
2013-03-27 11:49:00,51.8,-10.5,29.82,NW,325,9.0,16.0,7,0.00,,,0.00,meteohub,2013-03-27 15:49:00,
2013-03-27 11:55:00,52.5,-9.9,29.82,SW,236,7.0,16.0,7,0.00,,,0.00,meteohub,2013-03-27 15:55:00,
2013-03-27 12:00:00,52.7,-9.8,29.82,West,278,9.0,16.0,7,0.00,,,0.00,meteohub,2013-03-27 16:00:00,
2013-03-27 12:05:00,53.8,-9.0,29.82,SW,231,8.0,16.0,7,0.00,,,0.00,meteohub,2013-03-27 16:05:00,
2013-03-27 12:10:00,50.5,-8.7,29.82,SSW,206,11.0,15.0,8,0.00,,,0.00,meteohub,2013-03-27 16:10:00,
2013-03-27 12:16:00,50.9,-8.3,29.82,WSW,245,9.0,15.0,8,0.00,,,0.00,meteohub,2013-03-27 16:16:00,
2013-03-27 12:21:00,51.1,-8.3,29.82,SW,232,8.0,15.0,8,0.00,,,0.00,meteohub,2013-03-27 16:21:00,
2013-03-27 12:27:00,52.0,-10.3,29.82,West,274,8.0,14.0,7,0.00,,,0.00,meteohub,2013-03-27 16:27:00,
2013-03-27 12:32:00,51.1,-8.3,29.82,South,190,8.0,14.0,8,0.00,,,0.00,meteohub,2013-03-27 16:32:00,
2013-03-27 12:37:00,52.2,-10.1,29.82,South,179,8.0,14.0,7,0.00,,,0.00,meteohub,2013-03-27 16:37:00,
2013-03-27 12:42:00,53.1,-9.4,29.82,South,179,8.0,14.0,7,0.00,,,0.00,meteohub,2013-03-27 16:42:00,
2013-03-27 12:47:00,53.4,-9.2,29.82,South,182,6.0,14.0,7,0.00,,,0.00,meteohub,2013-03-27 16:47:00,
2013-03-27 12:53:00,54.0,-8.9,29.82,SSW,194,6.0,13.0,7,0.00,,,0.00,meteohub,2013-03-27 16:53:00,
2013-03-27 12:58:00,53.6,-9.0,29.82,SSE,158,3.0,13.0,7,0.00,,,0.00,meteohub,2013-03-27 16:58:00,
2013-03-27 13:03:00,53.4,-9.2,29.82,SSE,167,6.0,13.0,7,0.00,,,0.00,meteohub,2013-03-27 17:03:00,
2013-03-27 13:08:00,53.4,-9.2,29.82,SSE,162,6.0,13.0,7,0.00,,,0.00,meteohub,2013-03-27 17:08:00,
2013-03-27 13:14:00,53.2,-9.4,29.82,SSE,158,8.0,10.0,7,0.00,,,0.00,meteohub,2013-03-27 17:14:00,
2013-03-27 13:19:00,52.7,-9.8,29.82,SSE,168,11.0,11.0,7,0.00,,,0.00,meteohub,2013-03-27 17:19:00,
2013-03-27 13:24:00,51.6,-7.8,29.82,South,174,7.0,10.0,8,0.00,,,0.00,meteohub,2013-03-27 17:24:00,
2013-03-27 13:29:00,52.0,-10.3,29.82,South,175,8.0,10.0,7,0.00,,,0.00,meteohub,2013-03-27 17:29:00,
2013-03-27 13:34:00,52.2,-10.1,29.82,SE,137,8.0,11.0,7,0.00,,,0.00,meteohub,2013-03-27 17:34:00,
2013-03-27 13:40:00,51.8,-10.5,29.82,SE,142,9.0,11.0,7,0.00,,,0.00,meteohub,2013-03-27 17:40:00,
2013-03-27 13:45:00,51.3,-8.1,29.79,ESE,120,11.0,11.0,8,0.00,,,0.00,meteohub,2013-03-27 17:45:00,
2013-03-27 13:50:00,50.5,-8.7,29.79,SE,128,6.0,13.0,8,0.00,,,0.00,meteohub,2013-03-27 17:50:00,
2013-03-27 13:56:00,49.8,-9.2,29.79,SSE,149,11.0,13.0,8,0.00,,,0.00,meteohub,2013-03-27 17:56:00,
2013-03-27 14:00:00,49.5,-9.4,29.79,SSE,158,11.0,13.0,8,0.00,,,0.00,meteohub,2013-03-27 18:00:00,
2013-03-27 14:06:00,49.8,-9.2,29.79,SSE,163,10.0,13.0,8,0.00,,,0.00,meteohub,2013-03-27 18:06:00,
2013-03-27 14:11:00,49.8,-9.2,29.79,SE,146,6.0,12.0,8,0.00,,,0.00,meteohub,2013-03-27 18:11:00,
2013-03-27 14:17:00,50.4,-8.9,29.79,SE,135,5.0,13.0,8,0.00,,,0.00,meteohub,2013-03-27 18:17:00,
2013-03-27 14:22:00,50.7,-8.5,29.79,ESE,112,8.0,13.0,8,0.00,,,0.00,meteohub,2013-03-27 18:22:00,
2013-03-27 14:27:00,50.2,-8.9,29.79,SSE,154,11.0,13.0,8,0.00,,,0.00,meteohub,2013-03-27 18:27:00,
2013-03-27 14:32:00,50.7,-6.2,29.79,ESE,111,6.0,11.0,9,0.00,,,0.00,meteohub,2013-03-27 18:32:00,
2013-03-27 14:38:00,51.3,-8.1,29.79,SE,135,9.0,11.0,8,0.00,,,0.00,meteohub,2013-03-27 18:38:00,
2013-03-27 14:43:00,51.4,-8.0,29.79,SE,134,9.0,11.0,8,0.00,,,0.00,meteohub,2013-03-27 18:43:00,
2013-03-27 14:48:00,51.4,-8.0,29.79,SSE,151,9.0,11.0,8,0.00,,,0.00,meteohub,2013-03-27 18:48:00,
2013-03-27 14:53:00,51.4,-8.0,29.79,SSE,154,13.0,13.0,8,0.00,,,0.00,meteohub,2013-03-27 18:53:00,
2013-03-27 14:58:00,50.5,-8.7,29.79,SE,141,8.0,11.0,8,0.00,,,0.00,meteohub,2013-03-27 18:58:00,
2013-03-27 15:03:00,51.4,-8.0,29.79,SSE,163,9.0,13.0,8,0.00,,,0.00,meteohub,2013-03-27 19:03:00,
2013-03-27 15:09:00,52.3,-9.9,29.79,South,173,9.0,13.0,7,0.00,,,0.00,meteohub,2013-03-27 19:09:00,
2013-03-27 15:14:00,52.7,-9.8,29.79,South,177,15.0,15.0,7,0.00,,,0.00,meteohub,2013-03-27 19:14:00,
2013-03-27 15:19:00,51.6,-7.8,29.79,South,181,13.0,13.0,8,0.00,,,0.00,meteohub,2013-03-27 19:19:00,
2013-03-27 15:24:00,50.4,-8.9,29.79,South,170,15.0,15.0,8,0.00,,,0.00,meteohub,2013-03-27 19:24:00,
2013-03-27 15:30:00,49.6,-9.4,29.76,SSE,157,16.0,17.0,8,0.00,,,0.00,meteohub,2013-03-27 19:30:00,
2013-03-27 15:35:00,50.2,-8.9,29.76,SSE,158,13.0,17.0,8,0.00,,,0.00,meteohub,2013-03-27 19:35:00,
2013-03-27 15:41:00,50.0,-9.0,29.76,South,169,13.0,17.0,8,0.00,,,0.00,meteohub,2013-03-27 19:41:00,
2013-03-27 15:46:00,50.2,-8.9,29.76,SSE,152,13.0,17.0,8,0.00,,,0.00,meteohub,2013-03-27 19:46:00,
2013-03-27 15:52:00,50.0,-9.0,29.76,South,174,12.0,17.0,8,0.00,,,0.00,meteohub,2013-03-27 19:52:00,
2013-03-27 15:57:00,50.2,-8.9,29.76,South,183,14.0,17.0,8,0.00,,,0.00,meteohub,2013-03-27 19:57:00,
2013-03-27 16:02:00,50.5,-8.7,29.76,SSE,167,11.0,16.0,8,0.00,,,0.00,meteohub,2013-03-27 20:02:00,
2013-03-27 16:07:00,50.2,-8.9,29.76,South,179,12.0,16.0,8,0.00,,,0.00,meteohub,2013-03-27 20:07:00,
2013-03-27 16:12:00,50.5,-8.7,29.76,SSE,167,11.0,15.0,8,0.00,,,0.00,meteohub,2013-03-27 20:12:00,
2013-03-27 16:17:00,50.4,-8.9,29.76,South,173,13.0,15.0,8,0.00,,,0.00,meteohub,2013-03-27 20:17:00,
2013-03-27 16:22:00,48.6,-10.1,29.76,South,177,15.0,15.0,8,0.00,,,0.00,meteohub,2013-03-27 20:22:00,
2013-03-27 16:27:00,48.2,-8.0,29.76,SSE,166,12.0,14.0,9,0.00,,,0.00,meteohub,2013-03-27 20:27:00,
2013-03-27 16:32:00,47.8,-8.3,29.76,South,181,15.0,15.0,9,0.00,,,0.00,meteohub,2013-03-27 20:32:00,
2013-03-27 16:37:00,48.0,-8.1,29.76,South,176,13.0,15.0,9,0.00,,,0.00,meteohub,2013-03-27 20:37:00,
2013-03-27 16:43:00,48.4,-8.0,29.76,SE,143,11.0,15.0,9,0.00,,,0.00,meteohub,2013-03-27 20:43:00,
2013-03-27 16:48:00,48.7,-7.6,29.76,South,170,11.0,15.0,9,0.00,,,0.00,meteohub,2013-03-27 20:48:00,
2013-03-27 16:53:00,48.9,-7.4,29.76,South,189,9.0,15.0,9,0.00,,,0.00,meteohub,2013-03-27 20:53:00,
2013-03-27 16:58:00,48.2,-8.0,29.76,South,178,9.0,14.0,9,0.00,,,0.00,meteohub,2013-03-27 20:58:00,
2013-03-27 17:04:00,48.2,-8.0,29.76,SSE,164,9.0,14.0,9,0.00,,,0.00,meteohub,2013-03-27 21:04:00,
2013-03-27 17:09:00,48.4,-8.0,29.76,SSE,165,8.0,13.0,9,0.00,,,0.00,meteohub,2013-03-27 21:09:00,
2013-03-27 17:14:00,48.7,-7.6,29.76,South,169,6.0,13.0,9,0.00,,,0.00,meteohub,2013-03-27 21:14:00,
2013-03-27 17:20:00,48.9,-7.4,29.76,South,177,8.0,11.0,9,0.00,,,0.00,meteohub,2013-03-27 21:20:00,
2013-03-27 17:25:00,48.9,-7.4,29.76,South,181,8.0,11.0,9,0.00,,,0.00,meteohub,2013-03-27 21:25:00,
2013-03-27 17:30:00,48.7,-7.6,29.76,SSE,163,8.0,11.0,9,0.00,,,0.00,meteohub,2013-03-27 21:30:00,
2013-03-27 17:35:00,48.2,-8.0,29.76,SSE,164,8.0,10.0,9,0.00,,,0.00,meteohub,2013-03-27 21:35:00,
2013-03-27 17:41:00,48.2,-8.0,29.76,South,178,9.0,10.0,9,0.00,,,0.00,meteohub,2013-03-27 21:41:00,
2013-03-27 17:46:00,47.7,-8.5,29.76,SSE,158,6.0,9.0,9,0.00,,,0.00,meteohub,2013-03-27 21:46:00,
2013-03-27 17:52:00,46.9,-9.0,29.76,South,183,6.0,9.0,9,0.00,,,0.00,meteohub,2013-03-27 21:52:00,
2013-03-27 17:57:00,46.6,-9.2,29.76,South,185,8.0,9.0,9,0.00,,,0.00,meteohub,2013-03-27 21:57:00,
2013-03-27 18:02:00,46.4,-9.4,29.79,South,187,5.0,9.0,9,0.00,,,0.00,meteohub,2013-03-27 22:02:00,
2013-03-27 18:07:00,46.4,-9.4,29.79,SSW,194,4.0,9.0,9,0.00,,,0.00,meteohub,2013-03-27 22:07:00,
2013-03-27 18:12:00,46.4,-9.4,29.79,SSW,192,6.0,8.0,9,0.00,,,0.00,meteohub,2013-03-27 22:12:00,
2013-03-27 18:17:00,46.4,-9.4,29.79,SSW,196,4.0,8.0,9,0.00,,,0.00,meteohub,2013-03-27 22:17:00,
2013-03-27 18:23:00,46.2,-7.4,29.79,SSW,203,4.0,7.0,10,0.00,,,0.00,meteohub,2013-03-27 22:23:00,
2013-03-27 18:28:00,46.2,-7.4,29.79,SSW,204,4.0,7.0,10,0.00,,,0.00,meteohub,2013-03-27 22:28:00,
2013-03-27 18:33:00,46.2,-7.4,29.79,SSW,206,3.0,7.0,10,0.00,,,0.00,meteohub,2013-03-27 22:33:00,
2013-03-27 18:38:00,46.2,-7.4,29.79,SSW,206,3.0,7.0,10,0.00,,,0.00,meteohub,2013-03-27 22:38:00,
2013-03-27 18:44:00,46.2,-7.4,29.79,SSW,206,3.0,5.0,10,0.00,,,0.00,meteohub,2013-03-27 22:44:00,
2013-03-27 18:49:00,46.0,-7.6,29.79,SSW,207,4.0,5.0,10,0.00,,,0.00,meteohub,2013-03-27 22:49:00,
2013-03-27 18:54:00,46.0,-7.6,29.79,SSW,207,3.0,5.0,10,0.00,,,0.00,meteohub,2013-03-27 22:54:00,
2013-03-27 18:59:00,46.0,-7.6,29.79,SSW,207,3.0,5.0,10,0.00,,,0.00,meteohub,2013-03-27 22:59:00,
2013-03-27 19:05:00,46.0,-7.6,29.79,SSW,197,3.0,4.0,10,0.00,,,0.00,meteohub,2013-03-27 23:05:00,
2013-03-27 19:10:00,45.9,-7.6,29.79,SSW,194,4.0,4.0,10,0.00,,,0.00,meteohub,2013-03-27 23:10:00,
2013-03-27 19:16:00,45.5,-8.0,29.79,SSW,194,4.0,5.0,10,0.00,,,0.00,meteohub,2013-03-27 23:16:00,
2013-03-27 19:21:00,45.3,-8.1,29.79,SSW,197,4.0,5.0,10,0.00,,,0.00,meteohub,2013-03-27 23:21:00,
2013-03-27 19:26:00,45.1,-8.3,29.79,SSW,198,4.0,5.0,10,0.00,,,0.00,meteohub,2013-03-27 23:26:00,
2013-03-27 19:31:00,44.8,-8.5,29.82,SW,214,5.0,5.0,10,0.00,,,0.00,meteohub,2013-03-27 23:31:00,
2013-03-27 19:37:00,44.8,-10.7,29.82,WSW,244,5.0,5.0,9,0.00,,,0.00,meteohub,2013-03-27 23:37:00,
2013-03-27 19:42:00,45.0,-10.5,29.82,WSW,240,6.0,8.0,9,0.00,,,0.00,meteohub,2013-03-27 23:42:00,
2013-03-27 19:47:00,45.1,-10.3,29.82,West,259,6.0,8.0,9,0.00,,,0.00,meteohub,2013-03-27 23:47:00,
2013-03-27 19:52:00,45.1,-10.3,29.82,WNW,296,8.0,11.0,9,0.00,,,0.00,meteohub,2013-03-27 23:52:00,
2013-03-27 19:57:00,44.8,-10.7,29.82,WNW,288,11.0,11.0,9,0.00,,,0.00,meteohub,2013-03-27 23:57:00,
2013-03-27 20:02:00,44.2,-11.0,29.82,NW,307,13.0,13.0,9,0.00,,,0.00,meteohub,2013-03-28 00:02:00,
2013-03-27 20:07:00,43.5,-11.6,29.82,NW,323,6.0,15.0,9,0.00,,,0.00,meteohub,2013-03-28 00:07:00,
2013-03-27 20:13:00,43.0,-9.9,29.82,NNW,328,10.0,15.0,10,0.00,,,0.00,meteohub,2013-03-28 00:13:00,
2013-03-27 20:18:00,42.4,-8.3,29.85,NW,320,8.0,16.0,11,0.00,,,0.00,meteohub,2013-03-28 00:18:00,
2013-03-27 20:23:00,42.3,-8.5,29.85,NW,308,10.0,16.0,11,0.00,,,0.00,meteohub,2013-03-28 00:23:00,
2013-03-27 20:28:00,41.9,-8.9,29.85,NNW,335,8.0,16.0,11,0.00,,,0.00,meteohub,2013-03-28 00:28:00,
2013-03-27 20:33:00,41.7,-9.0,29.85,NW,311,6.0,16.0,11,0.00,,,0.00,meteohub,2013-03-28 00:33:00,
2013-03-27 20:39:00,41.5,-9.0,29.85,WNW,297,5.0,16.0,11,0.00,,,0.00,meteohub,2013-03-28 00:39:00,
2013-03-27 20:44:00,41.5,-9.0,29.85,NNW,333,6.0,16.0,11,0.00,,,0.00,meteohub,2013-03-28 00:44:00,
2013-03-27 20:49:00,41.4,-9.2,29.85,WNW,302,8.0,11.0,11,0.00,,,0.00,meteohub,2013-03-28 00:49:00,
2013-03-27 20:54:00,41.2,-6.0,29.85,NW,323,7.0,11.0,13,0.00,,,0.00,meteohub,2013-03-28 00:54:00,
2013-03-27 21:00:00,41.2,-6.0,29.85,NW,312,4.0,11.0,13,0.00,,,0.00,meteohub,2013-03-28 01:00:00,
2013-03-27 21:05:00,41.0,-6.2,29.85,NW,313,8.0,13.0,13,0.00,,,0.00,meteohub,2013-03-28 01:05:00,
2013-03-27 21:10:00,41.0,-6.2,29.85,NW,314,6.0,13.0,13,0.00,,,0.00,meteohub,2013-03-28 01:10:00,
2013-03-27 21:15:00,41.0,-1.8,29.88,NW,323,5.0,11.0,16,0.00,,,0.00,meteohub,2013-03-28 01:15:00,
2013-03-27 21:20:00,41.0,-1.8,29.88,WNW,292,8.0,11.0,16,0.00,,,0.00,meteohub,2013-03-28 01:20:00,
2013-03-27 21:26:00,41.0,0.7,29.88,WNW,301,4.0,11.0,18,0.00,,,0.00,meteohub,2013-03-28 01:26:00,
2013-03-27 21:31:00,41.0,0.7,29.88,WNW,295,6.0,11.0,18,0.00,,,0.00,meteohub,2013-03-28 01:31:00,
2013-03-27 21:37:00,41.0,0.7,29.88,WNW,300,4.0,11.0,18,0.00,,,0.00,meteohub,2013-03-28 01:37:00,
2013-03-27 21:42:00,41.0,4.1,29.88,WNW,298,5.0,9.0,21,0.00,,,0.00,meteohub,2013-03-28 01:42:00,
2013-03-27 21:47:00,41.0,4.1,29.88,NW,306,5.0,9.0,21,0.00,,,0.00,meteohub,2013-03-28 01:47:00,
2013-03-27 21:52:00,41.0,6.1,29.88,WNW,295,4.0,8.0,23,0.00,,,0.00,meteohub,2013-03-28 01:52:00,
2013-03-27 21:57:00,41.0,6.1,29.88,NW,306,6.0,8.0,23,0.00,,,0.00,meteohub,2013-03-28 01:57:00,
2013-03-27 22:02:00,41.0,8.8,29.88,WNW,292,4.0,8.0,26,0.00,,,0.00,meteohub,2013-03-28 02:02:00,
2013-03-27 22:08:00,41.2,10.6,29.88,West,271,6.0,9.0,28,0.00,,,0.00,meteohub,2013-03-28 02:08:00,
2013-03-27 22:13:00,41.2,10.6,29.88,WNW,289,4.0,9.0,28,0.00,,,0.00,meteohub,2013-03-28 02:13:00,
2013-03-27 22:18:00,41.2,11.3,29.88,West,281,4.0,8.0,29,0.00,,,0.00,meteohub,2013-03-28 02:18:00,
2013-03-27 22:23:00,41.2,11.3,29.88,WSW,257,3.0,8.0,29,0.00,,,0.00,meteohub,2013-03-28 02:23:00,
2013-03-27 22:28:00,41.2,11.3,29.88,WNW,284,5.0,8.0,29,0.00,,,0.00,meteohub,2013-03-28 02:28:00,
2013-03-27 22:34:00,41.2,12.0,29.88,NW,311,8.0,8.0,30,0.00,,,0.00,meteohub,2013-03-28 02:34:00,
2013-03-27 22:39:00,41.0,12.7,29.88,West,280,6.0,10.0,31,0.00,,,0.00,meteohub,2013-03-28 02:39:00,
2013-03-27 22:44:00,41.0,12.7,29.88,WNW,283,11.0,11.0,31,0.00,,,0.00,meteohub,2013-03-28 02:44:00,
2013-03-27 22:50:00,41.0,13.5,29.88,West,265,8.0,11.0,32,0.00,,,0.00,meteohub,2013-03-28 02:50:00,
2013-03-27 22:55:00,41.0,13.5,29.88,WSW,248,4.0,11.0,32,0.00,,,0.00,meteohub,2013-03-28 02:55:00,
2013-03-27 23:00:00,41.0,13.5,29.91,WSW,257,8.0,11.0,32,0.00,,,0.00,meteohub,2013-03-28 03:00:00,
2013-03-27 23:05:00,41.0,13.5,29.91,SW,226,5.0,10.0,32,0.00,,,0.00,meteohub,2013-03-28 03:05:00,
2013-03-27 23:10:00,41.0,14.0,29.91,WNW,303,5.0,10.0,33,0.00,,,0.00,meteohub,2013-03-28 03:10:00,
2013-03-27 23:17:00,41.0,14.7,29.88,WSW,254,9.0,11.0,34,0.00,,,0.00,meteohub,2013-03-28 03:17:00,
2013-03-27 23:22:00,41.0,15.4,29.88,WSW,251,6.0,11.0,35,0.00,,,0.00,meteohub,2013-03-28 03:22:00,
2013-03-27 23:27:00,41.2,16.2,29.88,WNW,288,5.0,11.0,36,0.00,,,0.00,meteohub,2013-03-28 03:27:00,
2013-03-27 23:32:00,41.2,16.9,29.88,West,276,10.0,13.0,37,0.00,,,0.00,meteohub,2013-03-28 03:32:00,
2013-03-27 23:37:00,41.4,17.6,29.88,WSW,257,13.0,13.0,38,0.00,,,0.00,meteohub,2013-03-28 03:37:00,
2013-03-27 23:42:00,41.5,18.5,29.88,WNW,302,8.0,13.0,39,0.00,,,0.00,meteohub,2013-03-28 03:42:00,
2013-03-27 23:47:00,41.4,18.3,29.88,West,278,5.0,13.0,39,0.00,,,0.00,meteohub,2013-03-28 03:47:00,
2013-03-27 23:52:00,41.4,18.3,29.88,WSW,251,8.0,13.0,39,0.00,,,0.00,meteohub,2013-03-28 03:52:00,
2013-03-27 23:57:00,41.4,18.3,29.88,West,265,8.0,13.0,39,0.00,,,0.00,meteohub,2013-03-28 03:57:00,